TimeMDT,TemperatureF,Dew PointF,Humidity,Sea Level PressureIn,VisibilityMPH,Wind Direction,Wind SpeedMPH,Gust SpeedMPH,PrecipitationIn,Events,Conditions,WindDirDegrees,DateUTC
12:53 AM,23.0,15.1,72,30.18,10.0,North,5.8,-,N/A,,Mostly Cloudy,350,2013-03-10 07:53:00
1:53 AM,23.0,15.1,72,30.18,10.0,NW,3.5,-,N/A,,Mostly Cloudy,320,2013-03-10 08:53:00
3:53 AM,19.9,14.0,78,30.19,10.0,NW,3.5,-,N/A,,Partly Cloudy,310,2013-03-10 09:53:00
4:53 AM,19.9,14.0,78,30.21,10.0,NNW,9.2,-,N/A,,Scattered Clouds,330,2013-03-10 10:53:00
6:53 AM,19.0,15.1,85,30.23,10.0,NW,3.5,-,N/A,,Mostly Cloudy,320,2013-03-10 12:53:00
7:53 AM,15.1,12.9,91,30.25,10.0,Calm,Calm,-,N/A,,Mostly Cloudy,0,2013-03-10 13:53:00
8:53 AM,21.9,16.0,78,30.23,10.0,North,4.6,-,N/A,,Partly Cloudy,10,2013-03-10 14:53:00
9:53 AM,23.0,17.1,78,30.24,10.0,Calm,Calm,-,N/A,,Partly Cloudy,0,2013-03-10 15:53:00
10:53 AM,27.0,18.0,69,30.22,10.0,Calm,Calm,-,N/A,,Partly Cloudy,0,2013-03-10 16:53:00
11:53 AM,30.9,16.0,54,30.19,10.0,North,12.7,-,N/A,,Partly Cloudy,350,2013-03-10 17:53:00
12:53 PM,33.1,15.1,48,30.18,10.0,NNW,9.2,-,N/A,,Partly Cloudy,340,2013-03-10 18:53:00
1:53 PM,35.1,14.0,42,30.16,10.0,NNE,15.0,-,N/A,,Partly Cloudy,20,2013-03-10 19:53:00
2:53 PM,32.0,18.0,56,30.17,10.0,East,5.8,-,N/A,,Partly Cloudy,90,2013-03-10 20:53:00
3:53 PM,32.0,19.0,59,30.20,10.0,East,5.8,-,N/A,,Scattered Clouds,80,2013-03-10 21:53:00
4:53 PM,33.1,19.9,59,30.18,10.0,Calm,Calm,-,N/A,,Scattered Clouds,0,2013-03-10 22:53:00
5:53 PM,35.1,19.9,54,30.17,10.0,Calm,Calm,-,N/A,,Scattered Clouds,0,2013-03-10 23:53:00
6:53 PM,35.1,19.9,54,30.17,10.0,West,6.9,-,N/A,,Partly Cloudy,270,2013-03-11 00:53:00
8:53 PM,30.0,17.1,59,30.17,10.0,WSW,8.1,-,N/A,,Clear,250,2013-03-11 02:53:00
9:53 PM,28.9,17.1,61,30.16,10.0,WSW,9.2,-,N/A,,Clear,250,2013-03-11 03:53:00
10:53 PM,28.9,17.1,61,30.14,10.0,West,6.9,-,N/A,,Clear,260,2013-03-11 04:53:00
11:53 PM,28.9,16.0,58,30.11,10.0,WSW,6.9,-,N/A,,Clear,240,2013-03-11 05:53:00
12:53 AM,28.9,16.0,58,30.08,10.0,SSW,5.8,-,N/A,,Clear,200,2013-03-11 06:53:00